Change the Weather History Date:

Sunday, October 27, 2013

  Actual Average Record
Temperature  
Mean Temperature 75 °F -  
Max Temperature 84 °F 83 °F 90 °F (1980)
Min Temperature 66 °F 68 °F 60 °F (1985)
Cooling Degree Days 10    
Growing Degree Days 25 (Base 50)    
Moisture  
Dew Point 71 °F    
Average Humidity 84    
Maximum Humidity 100    
Minimum Humidity 65    
Precipitation  
Precipitation 0.00 in - - ()
Sea Level Pressure  
Sea Level Pressure 30.03 in    
Wind  
Wind Speed 4 mph (NNE)    
Max Wind Speed 12 mph    
Max Gust Speed 17 mph    
Visibility 10 miles    
Events      
Averages and records for this station are not official NWS values.
T = Trace of Precipitation, MM = Missing Value Source: NWS Daily Summary

Daily Weather History Graph

Daily Weather History Graph

Search for Another Location

Airport or City:

Trip Planner

Search our weather history database for the weather conditions in past years. The results will help you decide how hot, cold, wet, or windy it might be!

Date:

Astronomy

Oct. 27, 2013 Rise Set
Actual Time 6:28 AM HST 5:55 PM HST
Civil Twilight 6:06 AM HST 6:17 PM HST
Nautical Twilight 5:40 AM HST 6:43 PM HST
Astronomical Twilight 5:14 AM HST 7:09 PM HST
Moon 12:25 AM HST (10/27) 1:25 PM HST (10/27)
Length of Visible Light 12h 11m
Length of Day
11h 26m
Last Quarter, 41% of the Moon is Illuminated
Oct 27
Last Quarter
Nov 3
New
Nov 9
First Quarter
Nov 17
Full
Nov 25
Last Quarter

Hourly Weather History & Observations

Time (HST) Temp. Heat Index Dew Point Humidity Pressure Visibility Wind Dir Wind Speed Gust Speed Precip Events Conditions
12:54 AM 70.0 °F - 69.1 °F 97% 30.04 in 10.0 mi ENE 3.5 mph - N/A   Clear
1:54 AM 70.0 °F - 69.1 °F 97% 30.02 in 10.0 mi NNE 3.5 mph - N/A   Clear
2:54 AM 69.1 °F - 68.0 °F 96% 30.01 in 10.0 mi Calm Calm - N/A   Clear
3:54 AM 66.9 °F - 66.0 °F 97% 30.00 in 10.0 mi Calm Calm - N/A   Clear
4:54 AM 66.0 °F - 66.0 °F 100% 30.01 in 10.0 mi Calm Calm - N/A   Clear
5:54 AM 68.0 °F - 66.9 °F 96% 30.02 in 10.0 mi Calm Calm - N/A   Clear
6:54 AM 70.0 °F - 69.1 °F 97% 30.03 in 10.0 mi Calm Calm - N/A   Clear
7:54 AM 78.1 °F - 71.1 °F 79% 30.04 in 10.0 mi Calm Calm - N/A   Clear
8:54 AM 82.0 °F 85.5 °F 69.1 °F 65% 30.05 in 10.0 mi Calm Calm - N/A   Clear
9:54 AM 82.9 °F 87.0 °F 70.0 °F 65% 30.06 in 10.0 mi North 6.9 mph - N/A   Partly Cloudy
10:54 AM 84.0 °F 89.6 °F 72.0 °F 67% 30.06 in 10.0 mi North 6.9 mph - N/A   Partly Cloudy
11:54 AM 84.9 °F 90.7 °F 72.0 °F 65% 30.03 in 10.0 mi North 11.5 mph - N/A   Scattered Clouds
12:54 PM 84.0 °F 90.2 °F 73.0 °F 69% 30.00 in 10.0 mi North 10.4 mph - N/A   Partly Cloudy
1:54 PM 82.9 °F 88.8 °F 73.0 °F 72% 29.99 in 10.0 mi North 11.5 mph 17.3 mph N/A   Partly Cloudy
2:54 PM 84.0 °F 90.2 °F 73.0 °F 69% 29.98 in 10.0 mi North 8.1 mph - N/A   Clear
3:54 PM 82.0 °F 87.4 °F 73.0 °F 74% 29.98 in 10.0 mi NNE 8.1 mph - N/A   Partly Cloudy
4:54 PM 80.1 °F 84.2 °F 73.0 °F 79% 29.99 in 10.0 mi North 10.4 mph - N/A   Clear
5:54 PM 77.0 °F - 73.0 °F 88% 30.01 in 10.0 mi NNE 4.6 mph - N/A   Partly Cloudy
6:54 PM 75.9 °F - 73.9 °F 94% 30.03 in 10.0 mi NNE 4.6 mph - N/A   Clear
7:54 PM 75.9 °F - 73.9 °F 94% 30.05 in 10.0 mi NNE 4.6 mph - N/A   Clear
8:54 PM 75.0 °F - 72.0 °F 90% 30.06 in 10.0 mi North 4.6 mph - N/A   Clear
9:54 PM 75.0 °F - 71.1 °F 87% 30.06 in 10.0 mi NNE 4.6 mph - N/A   Clear
10:54 PM 73.9 °F - 71.1 °F 91% 30.06 in 10.0 mi North 4.6 mph - N/A   Clear
11:54 PM 73.9 °F - 70.0 °F 87% 30.05 in 10.0 mi NNE 5.8 mph - N/A   Clear